Time,TemperatureF,DewpointF,PressureIn,WindDirection,WindDirectionDegrees,WindSpeedMPH,WindSpeedGustMPH,Humidity,HourlyPrecipIn,Conditions,Clouds,dailyrainin,SoftwareType,DateUTC
2013-01-30 00:12:00,34.0,33.0,29.77,ESE,112,3.2,-999.0,96,-99.99,,,0.00,Acu-Link.com,2013-01-30 05:12:00,
2013-01-30 00:27:00,34.9,33.9,29.76,SSW,202,3.7,-999.0,96,-99.99,,,0.00,Acu-Link.com,2013-01-30 05:27:00,
2013-01-30 00:42:00,34.3,33.3,29.73,SSE,157,2.2,-999.0,96,-99.99,,,0.00,Acu-Link.com,2013-01-30 05:42:00,
2013-01-30 00:58:00,34.2,33.2,29.72,South,180,0.0,-999.0,96,-99.99,,,0.00,Acu-Link.com,2013-01-30 05:58:00,
2013-01-30 01:13:00,34.2,33.2,29.73,WNW,292,2.7,-999.0,96,-99.99,,,0.00,Acu-Link.com,2013-01-30 06:13:00,
2013-01-30 01:28:00,34.2,33.2,29.71,SSW,202,0.0,-999.0,96,-99.99,,,0.00,Acu-Link.com,2013-01-30 06:28:00,
2013-01-30 01:43:00,34.2,33.2,29.69,ESE,112,1.7,-999.0,96,-99.99,,,0.00,Acu-Link.com,2013-01-30 06:43:00,
2013-01-30 01:58:00,34.2,33.2,29.68,NE,45,0.0,-999.0,96,-99.99,,,0.00,Acu-Link.com,2013-01-30 06:58:00,
2013-01-30 02:13:00,34.2,33.2,29.68,NNE,22,0.0,-999.0,96,-99.99,,,0.00,Acu-Link.com,2013-01-30 07:13:00,
2013-01-30 02:28:00,34.2,33.2,29.69,South,180,0.0,-999.0,96,-99.99,,,0.00,Acu-Link.com,2013-01-30 07:28:00,
2013-01-30 02:43:00,34.2,33.2,29.67,North,0,0.0,-999.0,96,-99.99,,,0.00,Acu-Link.com,2013-01-30 07:43:00,
2013-01-30 02:58:00,34.2,33.2,29.66,WNW,292,2.2,-999.0,96,-99.99,,,0.00,Acu-Link.com,2013-01-30 07:58:00,
2013-01-30 03:14:00,34.0,33.0,29.66,NE,45,0.0,-999.0,96,-99.99,,,0.00,Acu-Link.com,2013-01-30 08:14:00,
2013-01-30 03:29:00,33.8,32.8,29.66,WNW,292,0.0,-999.0,96,-99.99,,,0.00,Acu-Link.com,2013-01-30 08:29:00,
2013-01-30 03:44:00,33.8,32.8,29.66,SE,135,0.0,-999.0,96,-99.99,,,0.00,Acu-Link.com,2013-01-30 08:44:00,
2013-01-30 03:59:00,33.6,32.6,29.66,NW,315,1.7,-999.0,96,-99.99,,,0.00,Acu-Link.com,2013-01-30 08:59:00,
2013-01-30 04:15:00,33.6,32.6,29.67,WNW,292,0.0,-999.0,96,-99.99,,,0.00,Acu-Link.com,2013-01-30 09:15:00,
2013-01-30 04:30:00,33.6,32.6,29.66,NNW,337,0.0,-999.0,96,-99.99,,,0.00,Acu-Link.com,2013-01-30 09:30:00,
2013-01-30 04:45:00,33.6,32.6,29.65,NW,315,0.0,-999.0,96,-99.99,,,0.00,Acu-Link.com,2013-01-30 09:45:00,
2013-01-30 05:00:00,33.6,32.6,29.65,SSW,202,0.0,-999.0,96,-99.99,,,0.00,Acu-Link.com,2013-01-30 10:00:00,
2013-01-30 05:15:00,33.6,32.6,29.65,South,180,1.7,-999.0,96,-99.99,,,0.00,Acu-Link.com,2013-01-30 10:15:00,
2013-01-30 05:30:00,33.6,32.6,29.64,West,270,0.0,-999.0,96,-99.99,,,0.00,Acu-Link.com,2013-01-30 10:30:00,
2013-01-30 05:46:00,33.6,32.6,29.63,WNW,292,1.7,-999.0,96,-99.99,,,0.00,Acu-Link.com,2013-01-30 10:46:00,
2013-01-30 06:01:00,33.6,32.6,29.64,WNW,292,1.7,-999.0,96,-99.99,,,0.00,Acu-Link.com,2013-01-30 11:01:00,
2013-01-30 06:16:00,33.6,32.6,29.63,East,90,0.0,-999.0,96,-99.99,,,0.00,Acu-Link.com,2013-01-30 11:16:00,
2013-01-30 06:31:00,33.6,32.6,29.63,North,0,2.7,-999.0,96,-99.99,,,0.00,Acu-Link.com,2013-01-30 11:31:00,
2013-01-30 06:46:00,33.6,32.6,29.62,West,270,0.0,-999.0,96,-99.99,,,0.00,Acu-Link.com,2013-01-30 11:46:00,
2013-01-30 07:01:00,33.6,32.6,29.62,South,180,2.2,-999.0,96,-99.99,,,0.00,Acu-Link.com,2013-01-30 12:01:00,
2013-01-30 07:16:00,33.6,32.6,29.61,West,270,3.7,-999.0,96,-99.99,,,0.00,Acu-Link.com,2013-01-30 12:16:00,
2013-01-30 07:31:00,33.4,32.4,29.60,East,90,2.7,-999.0,96,-99.99,,,0.00,Acu-Link.com,2013-01-30 12:31:00,
2013-01-30 07:46:00,33.4,32.4,29.58,SSE,157,0.0,-999.0,96,-99.99,,,0.00,Acu-Link.com,2013-01-30 12:46:00,
2013-01-30 08:02:00,33.6,32.6,29.58,ESE,112,0.0,-999.0,96,-99.99,,,0.00,Acu-Link.com,2013-01-30 13:02:00,
2013-01-30 08:17:00,33.6,32.6,29.57,NE,45,3.2,-999.0,96,-99.99,,,0.00,Acu-Link.com,2013-01-30 13:17:00,
2013-01-30 08:32:00,34.3,33.3,29.57,SW,225,2.7,-999.0,96,-99.99,,,0.00,Acu-Link.com,2013-01-30 13:32:00,
2013-01-30 08:47:00,35.1,34.1,29.55,North,0,0.0,-999.0,96,-99.99,,,0.00,Acu-Link.com,2013-01-30 13:47:00,
2013-01-30 09:02:00,34.9,33.9,29.56,ESE,112,2.7,-999.0,96,-99.99,,,0.00,Acu-Link.com,2013-01-30 14:02:00,
2013-01-30 09:17:00,35.8,34.8,29.53,South,180,1.1,-999.0,96,-99.99,,,0.00,Acu-Link.com,2013-01-30 14:17:00,
2013-01-30 09:32:00,36.1,35.1,29.54,NNW,337,2.2,-999.0,96,-99.99,,,0.00,Acu-Link.com,2013-01-30 14:32:00,
2013-01-30 09:47:00,36.1,35.1,29.53,WNW,292,0.0,-999.0,96,-99.99,,,0.00,Acu-Link.com,2013-01-30 14:47:00,
2013-01-30 10:02:00,36.3,35.3,29.52,SE,135,3.7,-999.0,96,-99.99,,,0.00,Acu-Link.com,2013-01-30 15:02:00,
2013-01-30 10:18:00,36.5,35.5,29.51,SSE,157,7.8,-999.0,96,-99.99,,,0.00,Acu-Link.com,2013-01-30 15:18:00,
2013-01-30 10:33:00,37.2,36.2,29.49,SSE,157,3.7,-999.0,96,-99.99,,,0.00,Acu-Link.com,2013-01-30 15:33:00,
2013-01-30 10:48:00,37.9,36.9,29.48,WNW,292,2.7,-999.0,96,-99.99,,,0.00,Acu-Link.com,2013-01-30 15:48:00,
2013-01-30 11:03:00,38.5,37.5,29.47,NW,315,2.7,-999.0,96,-99.99,,,0.00,Acu-Link.com,2013-01-30 16:03:00,
2013-01-30 11:18:00,40.6,39.6,29.45,NNW,337,2.2,-999.0,96,-99.99,,,0.00,Acu-Link.com,2013-01-30 16:18:00,
2013-01-30 11:33:00,42.1,41.0,29.43,SSE,157,3.7,-999.0,96,-99.99,,,0.00,Acu-Link.com,2013-01-30 16:33:00,
2013-01-30 11:48:00,47.3,46.2,29.42,West,270,2.7,-999.0,96,-99.99,,,0.00,Acu-Link.com,2013-01-30 16:48:00,
2013-01-30 12:18:00,52.7,51.0,29.39,NW,315,5.8,-999.0,94,-99.99,,,0.00,Acu-Link.com,2013-01-30 17:18:00,
2013-01-30 12:34:00,55.9,52.7,29.41,West,270,7.8,-999.0,89,-99.99,,,0.00,Acu-Link.com,2013-01-30 17:34:00,
2013-01-30 12:49:00,56.1,52.6,29.40,West,270,3.2,-999.0,88,-99.99,,,0.00,Acu-Link.com,2013-01-30 17:49:00,
2013-01-30 13:19:00,54.7,51.5,29.42,West,270,7.3,-999.0,89,-99.99,,,0.03,Acu-Link.com,2013-01-30 18:19:00,
2013-01-30 13:34:00,55.2,52.0,29.40,SSW,202,1.7,-999.0,89,-99.99,,,0.03,Acu-Link.com,2013-01-30 18:34:00,
2013-01-30 13:49:00,54.9,52.0,29.39,SSW,202,0.0,-999.0,90,-99.99,,,0.03,Acu-Link.com,2013-01-30 18:49:00,
2013-01-30 14:04:00,54.9,52.0,29.40,West,270,4.2,-999.0,90,-99.99,,,0.03,Acu-Link.com,2013-01-30 19:04:00,
2013-01-30 14:20:00,53.6,50.4,29.38,WNW,292,4.7,-999.0,89,-99.99,,,0.03,Acu-Link.com,2013-01-30 19:20:00,
2013-01-30 14:35:00,54.0,50.8,29.35,WNW,292,3.2,-999.0,89,-99.99,,,0.03,Acu-Link.com,2013-01-30 19:35:00,
2013-01-30 14:50:00,54.3,51.4,29.33,West,270,4.7,-999.0,90,-99.99,,,0.03,Acu-Link.com,2013-01-30 19:50:00,
2013-01-30 15:05:00,52.9,49.1,29.35,NNW,337,1.7,-999.0,87,-99.99,,,0.05,Acu-Link.com,2013-01-30 20:05:00,
2013-01-30 15:20:00,52.7,50.4,29.35,WNW,292,2.2,-999.0,92,-99.99,,,0.07,Acu-Link.com,2013-01-30 20:20:00,
2013-01-30 15:35:00,53.2,50.9,29.35,NW,315,2.2,-999.0,92,-99.99,,,0.08,Acu-Link.com,2013-01-30 20:35:00,
2013-01-30 15:50:00,52.3,50.0,29.36,WNW,292,2.7,-999.0,92,-99.99,,,0.08,Acu-Link.com,2013-01-30 20:50:00,
2013-01-30 16:05:00,52.9,50.9,29.37,West,270,2.7,-999.0,93,-99.99,,,0.11,Acu-Link.com,2013-01-30 21:05:00,
2013-01-30 16:20:00,53.6,51.9,29.35,NW,315,4.2,-999.0,94,-99.99,,,0.12,Acu-Link.com,2013-01-30 21:20:00,
2013-01-30 16:36:00,52.2,49.9,29.35,NW,315,3.2,-999.0,92,-99.99,,,0.14,Acu-Link.com,2013-01-30 21:36:00,
2013-01-30 16:51:00,51.6,49.6,29.35,WSW,247,1.1,-999.0,93,-99.99,,,0.14,Acu-Link.com,2013-01-30 21:51:00,
2013-01-30 17:06:00,50.4,48.2,29.35,ESE,112,2.7,-999.0,92,-99.99,,,0.15,Acu-Link.com,2013-01-30 22:06:00,
2013-01-30 17:21:00,49.5,47.3,29.35,ESE,112,4.7,-999.0,92,-99.99,,,0.15,Acu-Link.com,2013-01-30 22:21:00,
2013-01-30 17:36:00,48.9,47.2,29.35,West,270,2.7,-999.0,94,-99.99,,,0.16,Acu-Link.com,2013-01-30 22:36:00,
2013-01-30 17:51:00,48.6,47.0,29.36,SSE,157,1.7,-999.0,94,-99.99,,,0.17,Acu-Link.com,2013-01-30 22:51:00,
2013-01-30 18:06:00,48.2,46.6,29.34,ESE,112,0.0,-999.0,94,-99.99,,,0.19,Acu-Link.com,2013-01-30 23:06:00,
2013-01-30 18:21:00,49.1,47.4,29.32,NE,45,2.7,-999.0,94,-99.99,,,0.21,Acu-Link.com,2013-01-30 23:21:00,
2013-01-30 18:36:00,47.5,45.9,29.32,West,270,2.2,-999.0,94,-99.99,,,0.24,Acu-Link.com,2013-01-30 23:36:00,
2013-01-30 18:52:00,47.1,45.5,29.31,ENE,67,3.2,-999.0,94,-99.99,,,0.27,Acu-Link.com,2013-01-30 23:52:00,
2013-01-30 19:07:00,46.9,45.3,29.31,SSW,202,1.7,-999.0,94,-99.99,,,0.31,Acu-Link.com,2013-01-31 00:07:00,
2013-01-30 19:22:00,46.6,45.0,29.31,ESE,112,0.0,-999.0,94,-99.99,,,0.34,Acu-Link.com,2013-01-31 00:22:00,
2013-01-30 19:37:00,47.5,46.1,29.30,ENE,67,2.7,-999.0,95,-99.99,,,0.37,Acu-Link.com,2013-01-31 00:37:00,
2013-01-30 19:52:00,47.3,45.9,29.29,NE,45,0.0,-999.0,95,-99.99,,,0.44,Acu-Link.com,2013-01-31 00:52:00,
2013-01-30 20:07:00,47.1,45.7,29.26,ESE,112,2.7,-999.0,95,-99.99,,,0.47,Acu-Link.com,2013-01-31 01:07:00,
2013-01-30 20:23:00,47.1,45.7,29.23,SSW,202,2.7,-999.0,95,-99.99,,,0.49,Acu-Link.com,2013-01-31 01:23:00,
2013-01-30 20:38:00,47.7,46.3,29.21,NE,45,1.1,-999.0,95,-99.99,,,0.52,Acu-Link.com,2013-01-31 01:38:00,
2013-01-30 20:53:00,51.3,49.9,29.19,South,180,0.0,-999.0,95,-99.99,,,0.56,Acu-Link.com,2013-01-31 01:53:00,
2013-01-30 21:08:00,51.8,50.4,29.17,SSE,157,6.3,-999.0,95,-99.99,,,0.61,Acu-Link.com,2013-01-31 02:08:00,
2013-01-30 21:23:00,52.5,50.5,29.18,ESE,112,3.7,-999.0,93,-99.99,,,0.63,Acu-Link.com,2013-01-31 02:23:00,
2013-01-30 21:38:00,52.9,50.9,29.15,East,90,3.7,-999.0,93,-99.99,,,0.66,Acu-Link.com,2013-01-31 02:38:00,
2013-01-30 21:54:00,53.8,50.9,29.14,East,90,4.7,-999.0,90,-99.99,,,0.70,Acu-Link.com,2013-01-31 02:54:00,
2013-01-30 22:09:00,54.1,50.9,29.13,East,90,4.2,-999.0,89,-99.99,,,0.78,Acu-Link.com,2013-01-31 03:09:00,
2013-01-30 22:24:00,55.9,51.1,29.11,ESE,112,4.2,-999.0,84,-99.99,,,0.81,Acu-Link.com,2013-01-31 03:24:00,
2013-01-30 22:39:00,54.9,51.1,29.09,East,90,5.8,-999.0,87,-99.99,,,0.83,Acu-Link.com,2013-01-31 03:39:00,
2013-01-30 22:54:00,53.6,50.4,29.07,NW,315,3.2,-999.0,89,-99.99,,,0.87,Acu-Link.com,2013-01-31 03:54:00,
2013-01-30 23:09:00,55.6,50.8,29.04,ESE,112,5.8,-999.0,84,-99.99,,,0.95,Acu-Link.com,2013-01-31 04:09:00,
2013-01-30 23:24:00,54.3,50.8,29.03,West,270,0.0,-999.0,88,-99.99,,,1.01,Acu-Link.com,2013-01-31 04:24:00,
2013-01-30 23:40:00,55.6,50.8,29.02,SE,135,6.8,-999.0,84,-99.99,,,1.06,Acu-Link.com,2013-01-31 04:40:00,
2013-01-30 23:55:00,54.9,51.1,29.02,South,180,8.3,-999.0,87,-99.99,,,1.11,Acu-Link.com,2013-01-31 04:55:00,